Regional Weather Roundup
Issued by NWS Sterling, VA

Home | Current Version | Previous Version | Graphics & Text | Print | Product List | Glossary On
Versions: 1 2 3 4 5 6 7 8 9 10 11 12 13 14 15 16 17 18 19 20 21 22 23 24 25 26 27 28 29 30 31 32 33 34 35 36 37 38 39 40 41 42 43 44 45 46 47 48 49 50
000
ASUS41 KLWX 010410
RWRLWX

REGIONAL WEATHER ROUNDUP
NATIONAL WEATHER SERVICE BALTIMORE MD/WASHINGTON DC
1200 AM EDT MON SEP 01 2014

Note: "FAIR" indicates few or no clouds below 12,000 feet
with no significant weather and/or obstructions to visibility.
 TC=TEMPERATURE CELSIUS

 * =Non NWS site. Station does not report precipitation (e.g. rain,
    snow, etc.), thunder, or fog.

DCZ001-MDZ009-015-VAZ040>042-051-053>054-010500-
WASHINGTON METRO

CITY           SKY/WX    TMP DP  RH WIND       PRES   REMARKS
WASHINGTON NAT CLOUDY    78  72  81 S3        30.05S
DULLES         CLOUDY    72  71  97 S6        30.04F
ANDREWS AFB    LGT RAIN  73  73 100 W2        30.05S
QUANTICO       CLOUDY    74  71  91 CALM      30.04F
COLLEGE PARK*  CLOUDY    75  73  94 CALM      30.03F
LEESBURG*      CLOUDY    73  73 100 CALM      30.05F
MANASSAS*      CLOUDY    73  73 100 CALM      30.05S
GAITHERSBURG*  CLOUDY    72  70  94 CALM      30.07F

$$

MDZ006>007-011-014-010500-
BALTIMORE METRO

CITY           SKY/WX    TMP DP  RH WIND       PRES   REMARKS
BWI AIRPORT    CLOUDY    74  72  93 CALM      30.03F
MD SCIENCE CTR   N/A     76  73  91 MISG      30.03F
MARTIN STATE   CLOUDY    75  73  94 S5        30.04S
ANNAPOLIS      CLOUDY    74  72  93 CALM      30.03F
FORT MEADE*    CLOUDY    72  70  94 CALM      30.06S

$$

MDZ012-015-019>023-010500-
MARYLAND EASTERN SHORE

CITY           SKY/WX    TMP DP  RH WIND       PRES   REMARKS
OCEAN CITY     PTCLDY    79  75  87 SW10      30.05S
SALISBURY      PTCLDY    78  73  84 S6        30.04S
BAY BRIDGE AP* TSTM      73  73 100 CALM      30.04F
CAMBRIDGE*     CLOUDY    79  73  83 SW5       30.05R
EASTON*        RAIN      75  75 100 NW5       30.09R

$$

MDZ017>025-010500-
SOUTHERN MARYLAND

CITY           SKY/WX    TMP DP  RH WIND       PRES   REMARKS
PATUXENT RIVER LGT RAIN  77  72  84 NW6       30.04S
ST INIGOES     LGT RAIN  79  72  79 W3        30.04S
LEONARDTOWN*   CLOUDY    73  70  88 CALM      30.06F

$$

MDZ003>005-010500-
NORTH CENTRAL MARYLAND

CITY           SKY/WX    TMP DP  RH WIND       PRES   REMARKS
FREDERICK*     CLOUDY   N/A N/A N/A CALM      30.06S
HAGERSTOWN APT MOCLDY    74  70  87 SW6       30.04S
WESTMINSTER*   CLOUDY    73  72  94 SW3       30.04F

$$

MDZ501>502-010500-
WESTERN MARYLAND

CITY           SKY/WX    TMP DP  RH WIND       PRES   REMARKS
OAKLAND*       CLOUDY    64 N/A N/A W6        30.15S
CUMBERLAND*    MOCLDY    73  64  73 CALM      30.08F

$$

VAZ025>031-010500-
SHENANDOAH VALLEY

CITY           SKY/WX    TMP DP  RH WIND       PRES   REMARKS
WINCHESTER*    CLOUDY    73  72  94 S3        30.05F
STAUNTON*      CLOUDY    74  68  81 S5        30.11S

$$

WVZ021-048>050-054>055-010500-
EASTERN WEST VIRGINIA PANHANDLE

CITY           SKY/WX    TMP DP  RH WIND       PRES   REMARKS
MARTINSBURG    CLOUDY    74  70  87 SW5       30.05S
PETERSBURG*    NOT AVBL

$$

VAZ036>039-050-010500-
CENTRAL FOOTHILLS

CITY           SKY/WX    TMP DP  RH WIND       PRES   REMARKS
CHARLOTTESVILL CLOUDY    75  71  87 CALM      30.06S
ORANGE*        MOCLDY    72  70  94 CALM      30.07F

$$

VAZ055>057-010500-
NORTH AND CENTRAL PIEDMONT

CITY           SKY/WX    TMP DP  RH WIND       PRES   REMARKS
FREDERICKSBRG* CLOUDY    76  75  99 CALM      30.04S
STAFFORD*      CLOUDY    72  72 100 CALM      30.08F FOG

$$

NCZ024-NYZ072-PAZ021-071-VAZ022-071-010500-
OTHER REGIONAL OBSERVATIONS

CITY           SKY/WX    TMP DP  RH WIND       PRES   REMARKS
NEW YORK CITY  CLOUDY    76  72  87 W6        30.03S
PHILADELPHIA   LGT RAIN  74  71  91 S7        30.03S
PITTSBURGH     PTCLDY    71  69  93 S5        30.04S
ROANOKE        CLOUDY    75  70  84 CALM      30.12S
RICHMOND       CLOUDY    80  72  76 S3        30.06R
RALEIGH        MOCLDY    80  71  74 S7        30.10S

$$

ANZ530>537-010500-
MARINE OBSERVATIONS

STATION/POSITION TIME  TEMP    WIND        PRES
                       AIR SEA DIR/SP/G
                 (UTC) (F)     (DEG/KT/KT) (MB)
THOMAS PT LIGHT  0400   74 79  290/  2/  2 1018.1F
BALT KEY BRIDGE  0400          170/  6/  7 1016.6F
COVE POINT       0400   75     270/  8/ 10 1017.1F
LEWISETTA        0400   81 80  230/  9/ 12 1016.9F
SOLOMONS ISLAND  0400      80                N/A
PINEY POINT      0400          340/  8/  9   N/A

$$



USA.gov is the U.S. government's official web portal to all federal, state and local government web resources and services.